Regional Weather Roundup
Issued by NWS

Home | Current Version | Previous Version | Graphics & Text | Print | Product List | Glossary On
Versions: 1 2 3 4 5 6 7 8 9 10 11 12 13 14 15 16 17 18 19 20 21 22 23 24 25 26 27 28 29 30 31 32 33 34 35 36 37 38 39 40 41 42 43 44 45 46 47 48 49 50
000
ASUS43 KOAX 260010
RWRNE

WEATHER ROUNDUP FOR NEBRASKA
NATIONAL WEATHER SERVICE OMAHA NE
700 PM CDT SUN SEP 25 2016

NOTES: SATELLITE DATA IS BEING USED TO AUGMENT CLOUD COVER ABOVE
       12000 FEET.
       "FAIR" INDICATES FEW OR NO CLOUDS BELOW 12,000 FEET WITH NO
       SIGNIFICANT WEATHER AND/OR OBSTRUCTIONS TO VISIBILITY.

  * THESE STATIONS DO NOT REPORT WEATHER SUCH AS RAIN...SNOW OR FOG.

NEZ001>004-019>022-054>056-260100-
NEBRASKA PANHANDLE

CITY           SKY/WX    TMP DP  RH WIND       PRES   REMARKS
SCOTTSBLUFF    CLEAR     65  36  34 NW12      30.35R
6HR MIN TEMP:  61; 6HR MAX TEMP:  68;

ALLIANCE       CLEAR     61  29  29 N14       30.34R
6HR MIN TEMP:  61; 6HR MAX TEMP:  65;

CHADRON        CLEAR     63  28  26 NW13G21   30.33R
6HR MIN TEMP:  61; 6HR MAX TEMP:  65;

KIMBALL        CLEAR     61  37  39 N12       30.38R
SIDNEY         LGT RAIN  63  33  32 N14       30.37R
6HR MIN TEMP:  63; 6HR MAX TEMP:  66; 6HR PCP: TRACE;

$$

NEZ057>060-069>072-079>082-260100-
SOUTHWEST NEBRASKA

CITY           SKY/WX    TMP DP  RH WIND       PRES   REMARKS
NORTH PLATTE   CLEAR     67  21  17 N13G20    30.30R
6HR MIN TEMP:  67; 6HR MAX TEMP:  74; 6HR PCP: TRACE;

IMPERIAL       CLEAR     67  30  25 N15       30.33R
6HR MIN TEMP:  67; 6HR MAX TEMP:  71;

LEXINGTON      CLEAR     66  20  17 N10       30.27R
MCCOOK         CLEAR     67  23  19 N12       30.29R
6HR MIN TEMP:  67; 6HR MAX TEMP:  75; 6HR PCP: TRACE;

OGALLALA       CLEAR     67  32  27 NW14      30.32R
$$

NEZ005>010-023>029-035>040-094-260100-
NORTH CENTRAL NEBRASKA

CITY           SKY/WX    TMP DP  RH WIND       PRES   REMARKS
VALENTINE      CLEAR     63  24  22 NW17      30.28R
6HR MIN TEMP:  63; 6HR MAX TEMP:  67;

AINSWORTH      CLEAR     63  30  29 NW12G23   30.27R
BROKEN BOW     CLEAR     65  21  18 N18G25    30.26R
6HR MIN TEMP:  65; 6HR MAX TEMP:  70;

O`NEILL        CLEAR     64  24  22 NW17      30.23R
ORD            CLEAR     64  29  26 NW12G21   30.23R
6HR MIN TEMP:  64; 6HR MAX TEMP:  70; 6HR PCP: TRACE;

THEDFORD       CLEAR     63  27  24 N15G24    30.31R
$$

NEZ041-046>049-061>064-073>077-083>087-260100-
SOUTH CENTRAL NEBRASKA

CITY           SKY/WX    TMP DP  RH WIND       PRES   REMARKS
GRAND ISLAND   CLEAR     66  29  24 NW13      30.23R
6HR MIN TEMP:  66; 6HR MAX TEMP:  72; 6HR PCP: TRACE;

AURORA         CLEAR     65  32  28 N9        30.22R
HASTINGS       CLEAR     67  28  23 NW12      30.24R
6HR MIN TEMP:  67; 6HR MAX TEMP:  72;

HEBRON         CLEAR     68  33  27 NW8       30.21R
HOLDREGE       CLEAR     67  20  17 N9        30.26R
KEARNEY *      CLEAR     66  23  19 N14       30.24R
YORK           CLEAR     66  32  28 NW10G20   30.21R
$$

NEZ011>018-030>034-042>045-260100-
NORTHEAST NEBRASKA

CITY           SKY/WX    TMP DP  RH WIND       PRES   REMARKS
NORFOLK        CLEAR     64  32  30 NW10      30.18R
6HR MIN TEMP:  63; 6HR MAX TEMP:  70; 6HR PCP: TRACE;

ALBION         CLEAR     64  31  29 NW15      30.20R
BLAIR          CLEAR     67  44  43 NW8       30.14R
FREMONT        CLEAR     65  38  37 NW12      30.16R
TEKAMAH        CLEAR     66  41  40 NW12      30.14R
6HR MIN TEMP:  66; 6HR MAX TEMP:  71;

WAYNE          CLEAR     64  35  33 NW15G22   30.17R
$$

NEZ050>053-065>068-078-088>093-260100-
SOUTHEAST NEBRASKA

CITY           SKY/WX    TMP DP  RH WIND       PRES   REMARKS
LINCOLN        CLEAR     70  37  29 NW8       30.18R
6HR MIN TEMP:  70; 6HR MAX TEMP:  75; 6HR PCP: TRACE;

OMAHA EPPLEY   PTCLDY    66  47  50 NW10      30.14R
6HR MIN TEMP:  66; 6HR MAX TEMP:  73;

BEATRICE       CLEAR     68  42  38 N15G21    30.18R
FALLS CITY     MOCLDY    68  52  56 NW6       30.14R
6HR MIN TEMP:  65; 6HR MAX TEMP:  72;

NEBRASKA CITY  CLEAR     66  35  30 N5        30.15R
PLATTSMOUTH    CLEAR     66  43  42 NW6       30.15R
$$

NEZ044-045-051>053-067-260100-
OMAHA AREA

CITY           SKY/WX    TMP DP  RH WIND       PRES   REMARKS
OMAHA EPPLEY   PTCLDY    66  47  50 NW10      30.14R
6HR MIN TEMP:  66; 6HR MAX TEMP:  73;

BLAIR          CLEAR     67  44  43 NW8       30.14R
FREMONT        CLEAR     65  38  37 NW12      30.16R
MILLARD        CLEAR     68  47  46 NW7       30.15R
OFFUTT AFB     CLEAR     65  49  54 NW7       30.13R
PLATTSMOUTH    CLEAR     66  43  42 NW6       30.15R
WAHOO          FAIR      66  37  34 NW7       30.16R
$$



USA.gov is the U.S. government's official web portal to all federal, state and local government web resources and services.